Regional Weather Roundup
Issued by NWS

Home | Current Version | Previous Version | Graphics & Text | Print | Product List | Glossary Off
Versions: 1 2 3 4 5 6 7 8 9 10 11 12 13 14 15 16 17 18 19 20 21 22 23 24 25 26 27 28 29 30 31 32 33 34 35 36 37 38 39 40 41 42 43 44 45 46 47 48 49 50

000
ASUS43 KMKX 250721
RWRWI

WISCONSIN REGIONAL WEATHER ROUNDUP
NATIONAL WEATHER SERVICE MILWAUKEE/SULLIVAN WI
200 AM CDT SAT OCT 25 2014

NOTE: "FAIR" INDICATES FEW OR NO CLOUDS BELOW 12,000 FEET WITH NO
SIGNIFICANT WEATHER AND/OR OBSTRUCTIONS TO VISIBILITY.

WIZ001-002-006>008-014>016-023>028-250800-
NORTHWEST WISCONSIN

CITY           SKY/WX    TMP DP  RH WIND       PRES   REMARKS
SUPERIOR ARPT  CLEAR     50  40  67 SW8       29.81S
ASHLAND        CLEAR     51  45  79 SW7       29.81R
HAYWARD        CLEAR     54  43  66 VRB5      29.85R
SIREN          CLEAR     53  39  59 W5        29.88R
CUMBERLAND     CLEAR     52  41  66 NW10      29.87R
RICE LAKE      CLEAR     46  45  96 CALM      29.88R FOG
CHETEK         CLEAR     52  48  87 W5        29.87R
LADYSMITH      FOG       52  51  96 SW3       29.86S VSB 3/4
EAU CLAIRE     CLEAR     50  49  96 W3        29.88R FOG
MENOMONIE      CLEAR     51  51  99 W7        29.89R
NEW RICHMOND   CLEAR     50  45  81 W8        29.90S
OSCEOLA        CLEAR     54  43  66 W7        29.93R
$$

WIZ003>005-009-010-017-018-250800-
NORTH CENTRAL WISCONSIN

CITY           SKY/WX    TMP DP  RH WIND       PRES   REMARKS
MANITOWISH WTR CLEAR     51  51 100 W8        29.79S FOG
ARBOR VITAE    CLEAR     53  51  93 W7        29.80R FOG
WOODRUFF       CLEAR     53  51  93 W7        29.80R FOG
RHINELANDER    PTCLDY    51  50  96 W7        29.81S FOG
EAGLE RIVER    CLEAR     51  50  98 W9        29.78F FOG
LAND O LAKES   CLEAR     53  50  89 W7        29.78S
PHILLIPS       CLEAR     52  51  95 W5        29.82S FOG
TOMAHAWK       MOCLDY    52  50  93 W5        29.82S FOG
MEDFORD        CLOUDY    53  52  97 W10G17    29.84R FOG
MERRILL        MOCLDY    55  54  96 W10       29.82S FOG
$$

WIZ029-030-035-036-043>047-250800-
CENTRAL WISCONSIN

CITY           SKY/WX    TMP DP  RH WIND       PRES   REMARKS
WAUSAU         CLOUDY    56  53  90 W7        29.82S FOG
MOSINEE        CLOUDY    54  54 100 W13       29.84S FOG
MARSHFIELD     CLOUDY    55  53  93 W10       29.84S FOG
STEVENS POINT  CLOUDY    54  53  95 W8        29.85S FOG
WAUPACA        CLOUDY    58  55  92 W8        29.84S
WAUTOMA        CLOUDY    55  55 100 W8        29.86S FOG
WISC RAPIDS    CLOUDY    55  54  96 W9        29.87R FOG
CAMP DOUGLAS   NOT AVBL
$$

WIZ011>013-019>022-031-037>040-048>050-250800-
NORTHEAST WISCONSIN

CITY           SKY/WX    TMP DP  RH WIND       PRES   REMARKS
ANTIGO         CLOUDY    53  52  95 W9        29.81S FOG
SHAWANO        MOCLDY    58  54  86 W7        29.81F
OCONTO         CLOUDY    55  54  97 W6        29.79S
STURGEON BAY   CLOUDY    55  52  88 W10G16    29.80S
GREEN BAY      CLOUDY    53  51  93 S5        29.81F
MANITOWOC      CLOUDY    54  52  93 W8        29.82F
APPLETON       CLOUDY    55  54  94 W10       29.83S
CLINTONVILLE   CLOUDY    55  54  94 W7        29.82S
OSHKOSH        CLOUDY    56  53  90 W7        29.84S
$$

WIZ032>034-041-042-053>061-250800-
SOUTHWEST WISCONSIN

CITY           SKY/WX    TMP DP  RH WIND       PRES   REMARKS
LA CROSSE      CLEAR     57  55  93 S7        29.89S FOG
SPARTA         PTCLDY    55  54  97 CALM      29.90R FOG
VIROQUA        CLOUDY    56  56 100 W9        29.91S
BOSCOBEL       MOCLDY    59  56  89 S6        29.92R FOG
PRAIRIE DU CHI CLOUDY    60  57  89 W6        29.92S FOG
PLATTEVILLE    CLOUDY    58  57  97 W9        29.93S
$$

WIZ056-057-062-063-064-067-068-250800-
SOUTH CENTRAL WISCONSIN

CITY           SKY/WX    TMP DP  RH WIND       PRES   REMARKS
REEDSBURG      CLOUDY    58  55  92 W9        29.89R
BARABOO/DELLS  CLOUDY    57  54  89 W9        29.88R FOG
LONE ROCK      CLOUDY    62  56  80 W6        29.91S HAZE
MINERAL POINT  CLOUDY    59  55  88 W10G18    29.91S FOG
MADISON        CLOUDY    58  55  90 W5        29.89S FOG
MIDDLETON      CLOUDY    58  58  97 W9        29.89S
WATERTOWN      CLOUDY    54  52  94 SW5       29.87R
MONROE         FOG       55  55 100 W13G22    29.90S VSB 1/4
JANESVILLE     CLOUDY    59  55  88 W10       29.89S
$$

WIZ051-052-058>065-066-070>072-250800-
SOUTHEAST WISCONSIN

CITY           SKY/WX    TMP DP  RH WIND       PRES   REMARKS
MILWAUKEE      PTCLDY    55  48  77 W7        29.87F
WAUKESHA       MOCLDY    52  50  93 W9        29.87S
MILWAUKEE/TIMM PTCLDY    54  46  76 W10       29.86S
RACINE         MOCLDY    54  48  80 SW8       29.88F
BURLINGTON     PTCLDY    51  49  94 SW5       29.88S
KENOSHA        PTCLDY    53  49  86 SW9       29.87F
FOND DU LAC    MOCLDY    51  48  89 SW5       29.85S
SHEBOYGAN      MOCLDY    53  50  89 W7        29.84S
WEST BEND      PTCLDY    54  48  82 W9        29.85S
JUNEAU         MOCLDY    50  49  97 SW6       29.87S FOG
$$

LSZ147-162-250800-
LAKE SUPERIOR

STATION/POSITION TIME  TEMP    WIND        PRES    WAVE
                       AIR SEA DIR/SP/G            HT/PER
                 (UTC) (F)     (DEG/KT/KT) (MB)    (FT/S)
W MID LAKE BUOY  0650   53 46  260/ 19/ 21 1005.1R   3/ 5
DEVILS ISLAND    0700   57     270/ 22/ 26 1007.5R
PORT WING        0640   59     260/ 14/ 18 1008.8R
SAXON HARBOR     0600   60     200/  9/ 14 1007.5F
$$

LMZ867-665-643>646-250800-
LAKE MICHIGAN

STATION/POSITION TIME  TEMP    WIND        PRES    WAVE
                       AIR SEA DIR/SP/G            HT/PER
                 (UTC) (F)     (DEG/KT/KT) (MB)    (FT/S)
CHAMBERS ISLAND  0600   54     200/  5/ 14 1008.5F
N MID LAKE BUOY  0650   52 51  210/ 17/ 21 1007.8F   5/ 6
NORTHPORT PIER   0701   55     250/  6/ 16 1007.8F
SISTER BAY       0613          220/ 14/ 18   N/A
KEWAUNEE LAKESHO 0700   53     250/  6/  8 1008.4F
SHEBOYGAN LAKESH 0700   54 51  210/  6/  6 1010.5F
PORT WASHINGTON  0600   55     220/  2/  6 1011.5
ATWATER BUOY     0700   56     230/  6/  8 1012.0F
MILWAUKEE LAKESH 0700   57     240/ 10/ 14   N/A
S MID LAKE BUOY  0650   58 54  210/ 12/ 14 1011.2F   1/ 3
KENOSHA   LAKESH 0700   58     240/  7/ 10 1011.2F
$$

TC  - TEMPERATURE IN CELSIUS
VSB - VISIBILITY IN STATUTE MILES
WCI - WIND CHILL INDEX
HX  - HEAT INDEX




USA.gov is the U.S. government's official web portal to all federal, state and local government web resources and services.